1337904030029,4.45733
1337904090029,4.42303
1337904150029,4.40430
1337904210029,4.40314
1337904270029,4.41718
1337904330029,4.39700
1337904390029,4.37278
1337904450029,4.40413
1337904510029,4.41844
1337904570029,4.42052
1337904630029,4.39880
1337904690029,4.40251
1337904750029,4.41641
1337904810029,4.39997
1337904870029,4.40035
1337904930029,4.39948
1337904990029,4.38525
1337905050029,4.40380
1337905110029,4.45688
1337905170029,4.42311
1337905230029,4.40894
1337905290029,4.42833
1337905350029,4.41380
1337905410029,4.40297
1337905470029,4.40611
1337905530029,4.41881
1337905590029,4.36621
1337905650029,4.42544
1337905710029,4.40399
1337905770029,4.38393
1337905830029,4.40669
1337905890029,4.42066
1337905950029,4.41334
1337906010029,4.36447
1337906070029,4.41726
1337906130029,4.41671
1337906190029,4.39355
1337906250029,4.38906
1337906310029,4.41950
1337906370029,4.41769
1337906430029,4.41416
1337906490029,4.40930
1337906550029,4.39079
1337906610029,4.39364
1337906670029,4.40197
1337906730029,4.37193
1337906790029,4.37425
1337906850029,4.40694
1337906910029,4.43723
1337906970029,4.40315
1337907030029,4.36803
1337907090029,4.38753
1337907150029,4.42952
1337907210029,4.38521
1337907270029,4.42917
1337907330029,4.38226
1337907390029,4.41179
1337907450029,4.44711
1337907510029,4.42293
1337907570029,4.40190
1337907630040,4.38519
1337907690040,4.41106
1337907750040,4.38589
1337907810040,4.42697
1337907870040,4.43749
1337907930040,4.40841
1337907990040,4.38895
1337908050040,4.40029
1337908110040,4.40922
1337908170040,4.43664
1337908230040,4.44442
1337908290040,4.37852
1337908350040,4.39857
1337908410040,4.44103
1337908470040,4.42358
1337908530040,4.43470
1337908590040,4.41865
1337908650040,4.43019
1337908710040,4.40195
1337908770040,4.40916
1337908830040,4.44096
1337908890040,4.43696
1337908950040,4.47099
1337909010040,4.42172
1337909070040,4.40285
1337909130040,4.47839
1337909190040,4.40191
1337909250040,4.42071
1337909310040,4.44419
1337909370040,4.45754
1337909430040,4.41141
1337909490040,4.40147
1337909550040,4.41279
1337909610040,4.40137
1337909670040,4.41793
1337909730040,4.41540
1337909790040,4.43968
1337909850040,4.36970
1337909910040,4.45795
1337909970040,4.44689
1337910030040,4.42171
1337910090040,4.43091
1337910150040,4.40127
1337910210040,4.40018
1337910270040,4.40446
1337910330040,4.42814
1337910390040,4.43033
1337910450040,4.40854
1337910510040,4.39983
1337910570040,4.38503
1337910630040,4.41904
1337910690040,4.42755
1337910750040,4.42656
1337910810040,4.42487
1337910870040,4.38382
1337910930040,4.39562
1337910990040,4.39369
1337911050040,4.40380
1337911110040,4.42306
1337911170040,4.45564
1337911230051,4.49450
1337911290051,4.49387
1337911350051,4.51195
1337911410051,4.50223
1337911470051,4.46063
1337911530051,4.46434
1337911590051,4.41388
1337911650051,4.41026
1337911710051,4.43202
1337911770051,4.47058
1337911830051,4.41603
1337911890051,4.42747
1337911950051,4.41536
1337912010051,4.40770
1337912070051,4.42822
1337912130051,4.39949
1337912190051,4.42621
1337912250051,4.37598
1337912310051,4.42097
1337912370051,4.38522
1337912430051,4.40689
1337912490051,4.38392
1337912550051,4.37463
1337912610051,4.37791
1337912670051,4.38602
1337912730051,4.38171
1337912790051,4.40954
1337912850051,4.34090
1337912910051,4.45034
1337912970051,4.40993
1337913030051,4.39453
1337913090051,4.38985
1337913150051,4.41211
1337913210051,4.38932
1337913270051,4.37072
1337913330051,4.41163
1337913390051,4.39690
1337913450051,4.40794
1337913510051,4.37250
1337913570051,4.41813
1337913630051,4.42960
1337913690051,4.41623
1337913750051,4.39895
1337913810051,4.36177
1337913870051,4.37297
1337913930051,4.36864
1337913990051,4.38874
1337914050051,4.38796
1337914110051,4.37328
1337914170051,4.42324
1337914230051,4.37412
1337914290051,4.39127
1337914350051,4.38309
1337914410051,4.39250
1337914470051,4.39377
1337914530051,4.39491
1337914590051,4.38699
1337914650051,4.40201
1337914710051,4.39656
1337914770051,4.41659
1337914830061,4.41173
1337914890061,4.39742
1337914950061,4.39995
1337915010061,4.42469
1337915070061,4.38805
1337915130061,4.40256
1337915190061,4.39092
1337915250061,4.37356
1337915310061,4.37431
1337915370061,4.36653
1337915430061,4.37155
1337915490061,4.35302
1337915550061,4.36489
1337915610061,4.36018
1337915670061,4.35490
1337915730061,4.35697
1337915790061,4.34880
1337915850061,4.36429
1337915910061,4.35686
1337915970061,4.38122
1337916030061,4.33934
1337916090061,4.33852
1337916150061,4.32934
1337916210061,4.33074
1337916270061,4.40312
1337916330061,4.37572
1337916390061,4.35843
1337916450061,4.33979
1337916510061,4.39725
1337916570061,4.34033
1337916630061,4.38587
1337916690061,4.38098
1337916750061,4.35725
1337916810061,4.37208
1337916870061,4.35022
1337916930061,4.33916
1337916990061,4.37207
1337917050061,4.35174
1337917110061,4.32920
1337917170061,4.35734
1337917230061,4.37987
1337917290061,4.37125
1337917350061,4.38111
1337917410061,4.35741
1337917470061,4.34361
1337917530061,4.37299
1337917590061,4.34550
1337917650061,4.35449
1337917710061,4.35689
1337917770061,4.32497
1337917830061,4.38922
1337917890061,4.36752
1337917950061,4.35662
1337918010061,4.37491
1337918070061,4.34042
1337918130061,4.33454
1337918190061,4.37163
1337918250061,4.34507
1337918310061,4.36748
1337918370061,4.36128
1337918430071,4.32614
1337918490071,4.35251
1337918550071,4.33836
1337918610071,4.35478
1337918670071,4.33436
1337918730071,4.35454
1337918790071,4.35932
1337918850071,4.33911
1337918910071,4.35760
1337918970071,4.33322
1337919030071,4.34103
1337919090071,4.37673
1337919150071,4.37239
1337919210071,4.36105
1337919270071,4.35466
1337919330071,4.34218
1337919390071,4.37379
1337919450071,4.33124
1337919510071,4.38086
1337919570071,4.33809
1337919630071,4.36687
1337919690071,4.36231
1337919750071,4.39411
1337919810071,4.34067
1337919870071,4.33559
1337919930071,4.33567
1337919990071,4.31370
1337920050071,4.34579
1337920110071,4.35709
1337920170071,4.33590
1337920230071,4.34077
1337920290071,4.34671
1337920350071,4.32603
1337920410071,4.36159
1337920470071,4.38871
1337920530071,4.34950
1337920590071,4.32214
1337920650071,4.34871
1337920710071,4.35291
1337920770071,4.36198
1337920830071,4.36524
1337920890071,4.34379
1337920950071,4.34641
1337921010071,4.35336
1337921070071,4.35635
1337921130071,4.37359
1337921190071,4.34717
1337921250071,4.36339
1337921310071,4.33241
1337921370071,4.32459
1337921430071,4.33837
1337921490071,4.36707
1337921550071,4.35053
1337921610071,4.34479
1337921670071,4.37045
1337921730071,4.35551
1337921790071,4.33989
1337921850071,4.35543
1337921910071,4.32006
1337921970071,4.36614
1337922030081,4.37275
1337922090081,4.33969
1337922150081,4.34737
1337922210081,4.34873
1337922270081,4.38429
1337922330081,4.35419
1337922390081,4.33982
1337922450081,4.33140
1337922510081,4.34969
1337922570081,4.34736
1337922630081,4.34532
1337922690081,4.32881
1337922750081,4.34976
1337922810081,4.33666
1337922870081,4.36695
1337922930081,4.33726
1337922990081,4.36159
1337923050081,4.34253
1337923110081,4.34306
1337923170081,4.35261
1337923230081,4.34205
1337923290081,4.33685
1337923350081,4.32027
1337923410081,4.33466
1337923470081,4.34447
1337923530081,4.35689
1337923590081,4.35628
1337923650081,4.34433
1337923710081,4.30459
1337923770081,4.34617
1337923830081,4.35372
1337923890081,4.31165
1337923950081,4.33884
1337924010081,4.33506
1337924070081,4.36475
1337924130081,4.32130
1337924190081,4.36365
1337924250081,4.32574
1337924310081,4.34103
1337924370081,4.31236
1337924430081,4.33486
1337924490081,4.35741
1337924550081,4.31875
1337924610081,4.32439
1337924670081,4.31554
1337924730081,4.35272
1337924790081,4.35900
1337924850081,4.36161
1337924910081,4.33631
1337924970081,4.31851
1337925030081,4.33011
1337925090081,4.32043
1337925150081,4.34721
1337925210081,4.36457
1337925270081,4.33558
1337925330081,4.34073
1337925390081,4.33382
1337925450081,4.33434
1337925510081,4.37247
1337925570081,4.34131
1337925630091,4.35190
1337925690091,4.34057
1337925750091,4.33401
1337925810091,4.35820
1337925870091,4.33703
1337925930091,4.32214
1337925990091,4.34457
1337926050091,4.33003
1337926110091,4.35028
1337926170091,4.35908
1337926230091,4.35226
1337926290091,4.38340
1337926350091,4.37255
1337926410091,4.34584
1337926470091,4.38274
1337926530091,4.36138
1337926590091,4.33507
1337926650091,4.37040
1337926710091,4.37710
1337926770091,4.33306
1337926830091,4.36824
1337926890091,4.34131
1337926950091,4.33409
1337927010091,4.36460
1337927070091,4.34597
1337927130091,4.32161
1337927190091,4.34700
1337927250091,4.35215
1337927310091,4.37257
1337927370091,4.35904
1337927430091,4.35261
1337927490091,4.32455
1337927550091,4.36203
1337927610091,4.32439
1337927670091,4.34076
1337927730091,4.36073
1337927790091,4.36311
1337927850091,4.31413
1337927910091,4.33192
1337927970091,4.36161
1337928030091,4.36741
1337928090091,4.36184
1337928150091,4.38910
1337928210091,4.34307
1337928270091,4.37071
1337928330091,4.34310
1337928390091,4.39866
1337928450091,4.35932
1337928510091,4.34252
1337928570091,4.34895
1337928630091,4.36510
1337928690091,4.36907
1337928750091,4.36634
1337928810091,4.36773
1337928870091,4.37532
1337928930091,4.38099
1337928990091,4.39775
1337929050091,4.38030
1337929110091,4.35342
1337929170091,4.37996
1337929230101,4.38908
1337929290101,4.37348
1337929350101,4.35568
1337929410100,4.37526
1337929470100,4.36957
1337929530100,4.36858
1337929590100,4.35193
1337929650100,4.39897
1337929710100,4.34557
1337929770100,4.38149
1337929830100,4.38102
1337929890100,4.34146
1337929950100,4.33279
1337930010100,4.34539
1337930070100,4.34583
1337930130100,4.36500
1337930190100,4.35752
1337930250100,4.33601
1337930310100,4.36534
1337930370100,4.33242
1337930430100,4.31780
1337930490101,4.31486
1337930550101,4.34860
1337930610101,4.32966
1337930670101,4.33864
1337930730101,4.31539
1337930790100,4.34115
1337930850100,4.35005
1337930910100,4.36816
1337930970100,4.33950
1337931030100,4.33415
1337931090100,4.34534
1337931150100,4.32540
1337931210100,4.33841
1337931270100,4.34772
1337931330100,4.35248
1337931390100,4.33184
1337931450100,4.33449
1337931510100,4.34069
1337931570100,4.38072
1337931630100,4.32691
1337931690100,4.34440
1337931750100,4.30889
1337931810101,4.33035
1337931870101,4.33447
1337931930101,4.38400
1337931990101,4.35932
1337932050101,4.31885
1337932110100,4.33362
1337932170100,4.33609
1337932230100,4.33079
1337932290100,4.34664
1337932350100,4.35734
1337932410100,4.34548
1337932470100,4.34140
1337932530100,4.37187
1337932590100,4.31896
1337932650100,4.31150
1337932710100,4.35916
1337932770100,4.34017
1337932830110,4.28623
1337932890110,4.33501
1337932950110,4.36025
1337933010110,4.33810
1337933070110,4.34896
1337933130110,4.34445
1337933190110,4.36311
1337933250110,4.33806
1337933310110,4.34711
1337933370110,4.30124
1337933430110,4.32972
1337933490110,4.30717
1337933550110,4.31849
1337933610110,4.30488
1337933670110,4.32863
1337933730110,4.34993
1337933790110,4.32816
1337933850110,4.33659
1337933910110,4.29503
1337933970110,4.33306
1337934030110,4.31164
1337934090110,4.33193
1337934150110,4.34645
1337934210110,4.30851
1337934270110,4.33108
1337934330110,4.32803
1337934390110,4.31595
1337934450110,4.34405
1337934510110,4.32728
1337934570110,4.35558
1337934630110,4.32853
1337934690110,4.31781
1337934750110,4.32400
1337934810110,4.29010
1337934870110,4.30992
1337934930110,4.33114
1337934990110,4.32140
1337935050110,4.32808
1337935110110,4.36179
1337935170110,4.32590
1337935230110,4.32309
1337935290110,4.35593
1337935350110,4.28433
1337935410110,4.30116
1337935470110,4.32546
1337935530110,4.28520
1337935590110,4.33335
1337935650110,4.31781
1337935710110,4.32256
1337935770110,4.29477
1337935830110,4.30209
1337935890110,4.30745
1337935950110,4.30857
1337936010110,4.30886
1337936070110,4.34534
1337936130110,4.31568
1337936190110,4.31841
1337936250110,4.32985
1337936310110,4.33901
1337936370110,4.33523
1337936430120,4.30799
1337936490120,4.29294
1337936550120,4.29269
1337936610120,4.29041
1337936670120,4.31671
1337936730120,4.29451
1337936790120,4.31666
1337936850120,4.29733
1337936910120,4.32441
1337936970120,4.33683
1337937030120,4.27210
1337937090120,4.31891
1337937150120,4.29197
1337937210120,4.31283
1337937270120,4.30414
1337937330120,4.30755
1337937390120,4.30861
1337937450120,4.30304
1337937510120,4.29438
1337937570120,4.31786
1337937630120,4.28655
1337937690120,4.31763
1337937750120,4.32487
1337937810120,4.33024
1337937870120,4.29519
1337937930120,4.30081
1337937990120,4.28926
1337938050120,4.30343
1337938110120,4.31713
1337938170120,4.30404
1337938230120,4.30394
1337938290120,4.32889
1337938350120,4.32859
1337938410120,4.29727
1337938470120,4.30617
1337938530120,4.32285
1337938590120,4.31470
1337938650120,4.32343
1337938710120,4.31764
1337938770120,4.33475
1337938830120,4.29425
1337938890120,4.35707
1337938950120,4.32011
1337939010120,4.30365
1337939070120,4.28061
1337939130120,4.29740
1337939190120,4.29314
1337939250120,4.30357
1337939310120,4.32444
1337939370120,4.32908
1337939430120,4.31901
1337939490120,4.28992
1337939550120,4.37763
1337939610120,4.34290
1337939670120,4.30329
1337939730120,4.30092
1337939790120,4.31800
1337939850120,4.31419
1337939910120,4.32069
1337939970120,4.31625
1337940030129,4.32460
1337940090129,4.27827
1337940150129,4.29025
1337940210129,4.29598
1337940270129,4.31921
1337940330129,4.33928
1337940390129,4.32812
1337940450129,4.33100
1337940510129,4.31851
1337940570129,4.30550
1337940630129,4.36587
1337940690129,4.38986
1337940750129,4.43066
1337940810129,4.47713
1337940870129,4.50630
1337940930129,4.53610
1337940990129,4.50207
1337941050129,4.47065
1337941110129,4.48071
1337941170129,4.46454
1337941230129,4.47868
1337941290129,4.43008
1337941350129,4.44701
1337941410129,4.40471
1337941470129,4.39138
1337941530129,4.38227
1337941590129,4.38902
1337941650129,4.35986
1337941710129,4.37807
1337941770129,4.36883
1337941830129,4.37754
1337941890129,4.38892
1337941950129,4.38214
1337942010129,4.37584
1337942070129,4.39820
1337942130129,4.39476
1337942190129,4.41750
1337942250129,4.38805
1337942310129,4.37260
1337942370129,4.34900
1337942430129,4.35178
1337942490129,4.35795
1337942550129,4.37392
1337942610129,4.37236
1337942670129,4.36210
1337942730129,4.31761
1337942790129,4.37331
1337942850129,4.38813
1337942910129,4.36108
1337942970129,4.33517
1337943030129,4.34706
1337943090129,4.37846
1337943150129,4.36622
1337943210129,4.39779
1337943270129,4.38782
1337943330129,4.36701
1337943390129,4.40088
1337943450129,4.41811
1337943510129,4.41831
1337943570129,4.48830
1337943630139,4.49046
1337943690139,4.46122
1337943750139,4.47100
1337943810139,4.44909
1337943870139,4.44118
1337943930139,4.43209
1337943990139,4.45470
1337944050139,4.43755
1337944110139,4.40814
1337944170139,4.39225
1337944230139,4.37203
1337944290139,4.39747
1337944350139,4.38254
1337944410139,4.39371
1337944470139,4.37755
1337944530139,4.37813
1337944590139,4.40161
1337944650139,4.40383
1337944710139,4.40967
1337944770139,4.41358
1337944830139,4.40642
1337944890139,4.40529
1337944950139,4.38623
1337945010139,4.37233
1337945070139,4.38694
1337945130139,4.44620
1337945190139,4.42212
1337945250139,4.44014
1337945310139,4.45786
1337945370139,4.42024
1337945430139,4.43939
1337945490139,4.40219
1337945550139,4.42833
1337945610139,4.39638
1337945670139,4.41476
1337945730139,4.38573
1337945790139,4.39498
1337945850139,4.38238
1337945910139,4.37039
1337945970139,4.35728
1337946030139,4.38211
1337946090139,4.39079
1337946150139,4.36381
1337946210139,4.41243
1337946270139,4.39437
1337946330139,4.41830
1337946390139,4.38711
1337946450139,4.43002
1337946510139,4.40437
1337946570139,4.37624
1337946630139,4.46458
1337946690139,4.38262
1337946750139,4.38643
1337946810139,4.35818
1337946870139,4.40520
1337946930139,4.41139
1337946990139,4.41839
1337947050139,4.37382
1337947110139,4.40458
1337947170139,4.38917
1337947230148,4.39649
1337947290148,4.37655
1337947350148,4.36223
1337947410148,4.39197
1337947470148,4.39434
1337947530148,4.40875
1337947590148,4.39220
1337947650148,4.36547
1337947710148,4.37720
1337947770148,4.37165
1337947830148,4.35196
1337947890148,4.36426
1337947950148,4.34763
1337948010148,4.36243
1337948070148,4.39679
1337948130148,4.38844
1337948190148,4.38615
1337948250148,4.37102
1337948310148,4.37290
1337948370148,4.37698
1337948430148,4.38097
1337948490148,4.40523
1337948550148,4.40527
1337948610148,4.40097
1337948670148,4.40509
1337948730148,4.42538
1337948790148,4.44709
1337948850148,4.39784
1337948910148,4.37763
1337948970148,4.40293
1337949030148,4.41182
1337949090148,4.40662
1337949150148,4.38718
1337949210148,4.41429
1337949270148,4.41514
1337949330148,4.35980
1337949390148,4.37836
1337949450148,4.42427
1337949510148,4.36446
1337949570148,4.35888
1337949630148,4.39180
1337949690148,4.38305
1337949750148,4.40159
1337949810148,4.36488
1337949870148,4.37770
1337949930148,4.40452
1337949990148,4.38547
1337950050148,4.41946
1337950110148,4.43860
1337950170148,4.37747
1337950230148,4.38602
1337950290148,4.38354
1337950350148,4.35387
1337950410148,4.41338
1337950470148,4.39471
1337950530148,4.36759
1337950590148,4.38581
1337950650148,4.41705
1337950710148,4.38496
1337950770148,4.37587
1337950830158,4.46921
1337950890158,4.41057
1337950950158,4.39041
1337951010158,4.42036
1337951070158,4.43285
1337951130158,4.42537
1337951190158,4.42758
1337951250158,4.37370
1337951310158,4.43666
1337951370158,4.42490
1337951430158,4.44105
1337951490158,4.40520
1337951550158,4.41085
1337951610158,4.40673
1337951670158,4.43391
1337951730158,4.40591
1337951790158,4.41089
1337951850158,4.39103
1337951910158,4.42038
1337951970158,4.39355
1337952030158,4.40774
1337952090158,4.34701
1337952150158,4.35717
1337952210158,4.36245
1337952270158,4.40292
1337952330158,4.42414
1337952390158,4.39289
1337952450158,4.38118
1337952510158,4.37787
1337952570158,4.40513
1337952630158,4.36547
1337952690158,4.38582
1337952750158,4.39245
1337952810158,4.40420
1337952870158,4.34258
1337952930158,4.40808
1337952990158,4.37271
1337953050158,4.40978
1337953110158,4.40788
1337953170158,4.38417
1337953230158,4.40153
1337953290158,4.37897
1337953350158,4.41856
1337953410158,4.39048
1337953470158,4.39259
1337953530158,4.35818
1337953590158,4.37548
1337953650158,4.40160
1337953710158,4.39307
1337953770158,4.34992
1337953830158,4.36340
1337953890158,4.41901
1337953950158,4.40161
1337954010158,4.37820
1337954070158,4.39006
1337954130158,4.37051
1337954190158,4.41547
1337954250158,4.37503
1337954310158,4.40302
1337954370158,4.38874
1337954430167,4.39840
1337954490167,4.40785
1337954550167,4.38540
1337954610167,4.40282
1337954670167,4.37705
1337954730167,4.40455
1337954790167,4.38686
1337954850167,4.39221
1337954910167,4.39825
1337954970167,4.36261
1337955030167,4.38008
1337955090167,4.41616
1337955150167,4.39639
1337955210167,4.37343
1337955270167,4.41917
1337955330167,4.41519
1337955390167,4.36806
1337955450167,4.37414
1337955510167,4.39075
1337955570167,4.39696
1337955630167,4.39992
1337955690167,4.40741
1337955750167,4.38924
1337955810167,4.37363
1337955870167,4.37354
1337955930167,4.36344
1337955990167,4.37352
1337956050167,4.36049
1337956110167,4.39236
1337956170167,4.39212
1337956230167,4.40578
1337956290167,4.41564
1337956350167,4.39474
1337956410167,4.38316
1337956470167,4.43149
1337956530167,4.39593
1337956590167,4.39504
1337956650167,4.37978
1337956710167,4.39447
1337956770167,4.38934
1337956830167,4.38809
1337956890167,4.40279
1337956950167,4.38503
1337957010167,4.37218
1337957070167,4.37818
1337957130167,4.39974
1337957190167,4.39317
1337957250167,4.40215
1337957310167,4.40605
1337957370167,4.38971
1337957430167,4.40580
1337957490167,4.41864
1337957550167,4.44081
1337957610167,4.41715
1337957670167,4.42684
1337957730167,4.41964
1337957790167,4.40657
1337957850167,4.41603
1337957910167,4.43151
1337957970167,4.42134
1337958030177,4.41359
1337958090177,4.37898
1337958150177,4.41503
1337958210177,4.41586
1337958270177,4.39114
1337958330177,4.40206
1337958390177,4.37755
1337958450177,4.41827
1337958510177,4.41384
1337958570177,4.41963
1337958630177,4.43229
1337958690177,4.40393
1337958750177,4.41261
1337958810177,4.41741
1337958870177,4.42742
1337958930177,4.41074
1337958990177,4.44732
1337959050177,4.40712
1337959110177,4.42018
1337959170177,4.41465
1337959230177,4.43141
1337959290177,4.42622
1337959350177,4.44693
1337959410177,4.41226
1337959470177,4.42581
1337959530177,4.38554
1337959590177,4.44592
1337959650177,4.43198
1337959710177,4.44017
1337959770177,4.42542
1337959830177,4.42936
1337959890177,4.41270
1337959950177,4.43460
1337960010177,4.45492
1337960070177,4.43128
1337960130177,4.43598
1337960190177,4.39920
1337960250177,4.42374
1337960310177,4.45185
1337960370177,4.45562
1337960430177,4.43897
1337960490177,4.43515
1337960550177,4.41611
1337960610177,4.43484
1337960670177,4.44506
1337960730177,4.47210
1337960790177,4.41148
1337960850177,4.43305
1337960910177,4.43659
1337960970177,4.43207
1337961030177,4.44582
1337961090177,4.42204
1337961150177,4.48612
1337961210177,4.54113
1337961270177,4.58418
1337961330177,4.60491
1337961390177,4.59042
1337961450177,4.58823
1337961510177,4.55765
1337961570177,4.54956
1337961630186,4.54295
1337961690186,4.50426
1337961750186,4.52779
1337961810186,4.49340
1337961870186,4.46054
1337961930186,4.48295
1337961990186,4.45681
1337962050186,4.48013
1337962110186,4.47801
1337962170186,4.45029
1337962230186,4.45111
1337962290186,4.45669
1337962350186,4.45044
1337962410186,4.44282
1337962470186,4.45877
1337962530186,4.45791
1337962590186,4.47695
1337962650186,4.42807
1337962710186,4.44545
1337962770186,4.46832
1337962830186,4.44969
1337962890186,4.52309
1337962950186,4.44492
1337963010186,4.45541
1337963070186,4.44050
1337963130186,4.41978
1337963190186,4.45505
1337963250186,4.47781
1337963310186,4.43750
1337963370186,4.46051
1337963430186,4.47262
1337963490186,4.41031
1337963550186,4.44802
1337963610186,4.44262
1337963670186,4.43794
1337963730186,4.42357
1337963790186,4.44563
1337963850186,4.45791
1337963910186,4.45447
1337963970186,4.44161
1337964030186,4.42794
1337964090186,4.44643
1337964150186,4.41414
1337964210186,4.45595
1337964270186,4.46302
1337964330186,4.45367
1337964390186,4.43141
1337964450186,4.45483
1337964510186,4.42985
1337964570186,4.44756
1337964630186,4.39002
1337964690186,4.42207
1337964750186,4.42693
1337964810186,4.45151
1337964870186,4.41934
1337964930186,4.39934
1337964990186,4.41169
1337965050186,4.49643
1337965110186,4.39452
1337965170186,4.39760
1337965230196,4.41502
1337965290196,4.40897
1337965350196,4.40260
1337965410196,4.38036
1337965470196,4.39671
1337965530196,4.39685
1337965590196,4.38800
1337965650196,4.42292
1337965710196,4.42381
1337965770196,4.39555
1337965830196,4.37777
1337965890196,4.38468
1337965950196,4.39629
1337966010196,4.44233
1337966070196,4.37302
1337966130196,4.40762
1337966190196,4.38091
1337966250196,4.44323
1337966310196,4.37356
1337966370196,4.43021
1337966430196,4.37288
1337966490196,4.41855
1337966550196,4.39502
1337966610196,4.41591
1337966670196,4.43439
1337966730196,4.37189
1337966790196,4.38743
1337966850196,4.42321
1337966910196,4.39428
1337966970196,4.39779
1337967030196,4.41790
1337967090196,4.40652
1337967150196,4.68931
1337967210196,4.40715
1337967270196,4.38637
1337967330196,4.38626
1337967390196,4.45368
1337967450196,4.42695
1337967510196,4.41664
1337967570196,4.42240
1337967630196,4.42070
1337967690196,4.42859
1337967750196,4.38069
1337967810196,4.43395
1337967870196,4.39346
1337967930196,4.38677
1337967990196,4.40713
1337968050196,4.37166
1337968110196,4.39782
1337968170196,4.39119
1337968230196,4.40924
1337968290196,4.38970
1337968350196,4.38948
1337968410196,4.39900
1337968470196,4.40698
1337968530196,4.42471
1337968590196,4.38348
1337968650196,4.39197
1337968710196,4.38970
1337968770196,4.35470
1337968830206,4.39992
1337968890206,4.38626
1337968950206,4.37201
1337969010206,4.38554
1337969070206,4.38482
1337969130206,4.38712
1337969190206,4.41160
1337969250206,4.37157
1337969310206,4.34916
1337969370206,4.37629